Voltar ao catálogo

STARLINK-36875

AtivoComunicaçõesSSO
NORAD 68300·PAYLOAD·🇺🇸 United States

Lançado Mar 20, 2026 de Vandenberg Space Force Base

Loading…

Próximas Passagens (próximas 24 horas)

TLE

AtualizadoSource: CelesTrak SupGP

Época: Sep 15, 2026, 03:22 UTC

1 68300C 26057G   26258.14076389  .00012767  00000+0  39630-3 0  2582
2 68300  97.2856  23.5864 0000966  83.4467 151.4017 15.33434654    15

Acompanhe STARLINK-36875 em tempo real com AllMySat

Download on the App Store